Terug naar catalogus

STARLINK-2421

ActiefCommunicatieVLEO
NORAD 48098·PAYLOAD·🇺🇸 United States

Gelanceerd Apr 7, 2021 vanaf Cape Canaveral Space Force Station

Loading…

Volgende Passages (komende 24 uur)

TLE

VersSource: CelesTrak SupGP

Epoch: Sep 14, 2026, 20:25 UTC

1 48098C 21027G   26257.85118056  .00018246  00000+0  40318-3 0  2573
2 48098  53.1603 352.4969 0002341  10.5990 169.1708 15.43254284    12

Volg STARLINK-2421 in realtime met AllMySat

Download on the App Store